Location: Kosice
(48.7170°N, 21.2500°E)
Time: 01:16:40
(UTC+02:00)

ISS - Visible Passes

Search period start: 06 May 2021 00:00
Search period end: 16 May 2021 00:00
Orbit: 418 x 421 km, 51.6° (Epoch: 05 May)

Date Brightness Start Highest point End Pass type
(mag) Time Alt. Az. Time Alt. Az. Time Alt. Az.
06 May -3.8 02:48:19 50° W 02:49:05 81° NNW 02:52:30 10° ENE visible
06 May -2.9 04:22:50 10° WNW 04:26:09 49° N 04:29:27 10° ENE visible
07 May -3.1 02:02:24 51° E 02:02:24 51° E 02:05:03 10° ENE visible
07 May -2.9 03:35:21 10° W 03:38:38 50° N 03:41:57 10° ENE visible
08 May -1.5 01:16:27 19° E 01:16:27 19° E 01:17:35 10° ENE visible
08 May -3.1 02:49:24 25° WNW 02:51:07 55° N 02:54:28 10° ENE visible
08 May -3.1 04:24:53 10° WNW 04:28:14 57° N 04:31:35 10° E visible
09 May -3.5 02:03:25 62° NW 02:03:38 64° NNW 02:07:01 10° ENE visible
09 May -2.9 03:37:25 10° WNW 03:40:44 51° N 03:44:03 10° E visible
10 May -2.4 01:17:25 36° ENE 01:17:25 36° ENE 01:19:33 10° ENE visible
10 May -2.8 02:50:21 13° WNW 02:53:13 49° N 02:56:31 10° ENE visible
11 May -1.2 00:31:23 15° ENE 00:31:23 15° ENE 00:32:07 10° ENE visible
11 May -2.9 02:04:19 29° WNW 02:05:41 50° N 02:09:00 10° ENE visible
11 May -3.4 03:39:23 10° WNW 03:42:46 69° NNE 03:46:08 10° E visible
12 May -3.1 01:18:14 54° N 01:18:14 54° N 01:21:31 10° ENE visible
12 May -3.1 02:51:56 10° WNW 02:55:17 58° NNE 02:58:38 10° E visible
13 May -2.2 00:32:04 31° ENE 00:32:04 31° ENE 00:34:02 10° ENE visible
13 May -2.9 02:04:58 14° WNW 02:07:46 51° N 02:11:05 10° E visible
13 May -3.8 03:41:19 10° WNW 03:44:41 68° SSW 03:48:03 10° ESE visible
13 May -1.5 23:45:40 17° ENE 23:45:40 17° ENE 23:46:35 10° ENE visible
14 May -2.8 01:18:34 25° WNW 01:20:14 49° N 01:23:32 10° ENE visible
14 May -3.8 02:53:52 10° WNW 02:57:15 89° NNE 03:00:38 10° ESE visible
14 May -2.2 21:17:04 10° S 21:19:20 17° SE 21:21:37 10° E visible
14 May -3.9 22:52:22 10° WSW 22:57:41 23° ENE 22:59:06 10° ENE visible
15 May -2.9 00:29:24 10° W 00:32:42 50° N 00:36:01 10° ENE visible
15 May -3.5 02:06:24 10° WNW 02:09:47 70° NNE 02:13:09 10° E visible
15 May -3.0 03:43:23 10° W 03:46:26 32° SW 03:49:29 10° SSE visible
15 May -3.7 22:05:01 10° SW 22:08:18 55° SSE 22:11:37 10° ENE visible
15 May -3.1 23:41:51 10° W 23:45:10 54° N 23:48:30 10° ENE visible
